Погода в Монтеджардино

Сан-Марино     43°54′32″N   12°29′06″E
темп.,
°C
ветер,
м/с
пор.,
м/с
влажн.,
%
обл.,
%
осадки,
мм/ч
давл.,
гПа
погр.,
м
22 января, сб
сб2201:00+3ююв24651 0.1 1027118
04:00+2юз22590 0.0 102663
07:00+1з22600 0.0 102641
10:00+4зсз12480 0.0 1026188
13:00+8ссз22370 0.0 1025527
16:00+7с22500 0.0 1025118
19:00+4юз11560 0.0 102748
22:00+4ююз11580 0.0 102929
23 января, вс
вс2301:00+3ю11590 0.0 102927
04:00+3ююз11610 0.0 102925
07:00+2юз00665 0.0 103033
10:00+5зсз116189 0.0 1030159
13:00+7ссв116240 0.0 1031385
16:00+7с12650 0.0 1029129
19:00+4з11720 0.0 103052
22:00+3зюз22760 0.0 103039
24 января, пн
пн2401:00+2з11765 0.0 103037
04:00+2з117548 0.0 103035
07:00+3юз117195 0.0 103134
10:00+6в486657 0.0 1032694
13:00+7всв686253 0.0 10321090
16:00+6юв476220 0.1 1033720
19:00+4юв246523 0.1 1034198
22:00+3ююз11615 0.0 1035146
25 января, вт
вт2501:00+2з12635 0.0 1035106
04:00+2зюз22675 0.0 103439
07:00+2юз21684 0.0 103428
10:00+5юз11585 0.0 1033235
13:00+7всв22585 0.0 1033639
16:00+6всв226728 0.0 1032268
19:00+4ю117889 0.0 103269
22:00+3ююз11802 0.0 103250
26 января, ср
ср2601:00+3зюз11825 0.0 103227
04:00+2з118315 0.0 103133
07:00+2зюз11835 0.0 103135
10:00+5сз11729 0.0 1031214
13:00+7с21645 0.0 1030532
16:00+7ссв22655 0.0 1030321
19:00+4ююз11765 0.0 103045
22:00+3зюз21785 0.0 103135